Location: ??
(35.5052°N, 139.7262°E)
Time: 02:11:15
(UTC+00:00)

OAO 1 - Pass Details

Date: 02 November 2021
Orbit: 773 x 784 km, 35.0° (Epoch: 03 December)

Event Time Altitude Azimuth Distance (km) Brightness Sun altitude
Rises 09:42:29 0° 277° (W) 3,246 9.1 -24.3°
Reaches altitude 10° 09:45:12 10° 267° (W) 2,319 8.1 -24.8°
Maximum altitude 09:49:55 30° 208° (SSW) 1,367 6.0 -25.8°
Enters shadow 09:51:50 24° 173° (S) 1,564 6.0 -26.2°
